This is the latest recevied weather packets stored in our database for station/object DC1NF-6. If no packets are shown the sender has not sent any weather packets the latest 10 day(s).
| Time | Temp. | Humidity | Pressure | Rain* | Wind** | Luminosity | Snow |
|---|---|---|---|---|---|---|---|
| 1777238474 | 8.33° C | 55% | 1023.2 hPa | 0 mm | - | - | - |
| 1777237872 | 8.33° C | 54% | 1023.2 hPa | 0 mm | - | - | - |
| 1777237268 | 8.89° C | 52% | 1023.2 hPa | 0 mm | - | - | - |
| 1777236664 | 8.89° C | 52% | 1023.2 hPa | 0 mm | - | - | - |
| 1777236061 | 8.89° C | 51% | 1023.2 hPa | 0 mm | - | - | - |
| 1777235458 | 9.44° C | 51% | 1023.2 hPa | 0 mm | - | - | - |
| 1777234854 | 9.44° C | 50% | 1023.1 hPa | 0 mm | - | - | - |
| 1777234254 | 9.44° C | 51% | 1023.1 hPa | 0 mm | - | - | - |
| 1777233648 | 9.44° C | 50% | 1023 hPa | 0 mm | - | - | - |
| 1777233044 | 9.44° C | 52% | 1023 hPa | 0 mm | - | - | - |
| 1777232442 | 10° C | 52% | 1022.8 hPa | 0 mm | - | - | - |
| 1777231838 | 10° C | 50% | 1022.8 hPa | 0 mm | - | - | - |
| 1777231235 | 11.11° C | 47% | 1022.8 hPa | 0 mm | - | - | - |
| 1777230631 | 11.11° C | 46% | 1022.6 hPa | 0 mm | - | - | - |
| 1777230027 | 11.11° C | 47% | 1022.6 hPa | 0 mm | - | - | - |
| 1777229424 | 11.67° C | 45% | 1022.4 hPa | 0 mm | - | - | - |
| 1777228821 | 11.67° C | 46% | 1022.3 hPa | 0 mm | - | - | - |
| 1777228217 | 11.67° C | 48% | 1022.4 hPa | 0 mm | - | - | - |
| 1777227674 | 11.67° C | 45% | 1022.3 hPa | 0 mm | - | - | - |
| 1777227072 | 12.22° C | 46% | 1022.2 hPa | 0 mm | - | - | - |
| 1777226468 | 12.78° C | 43% | 1022.1 hPa | 0 mm | - | - | - |
| 1777225864 | 13.33° C | 42% | 1022 hPa | 0 mm | - | - | - |
| 1777225261 | 13.33° C | 41% | 1022.1 hPa | 0 mm | - | - | - |
| 1777224658 | 13.33° C | 42% | 1021.9 hPa | 0 mm | - | - | - |
| 1777224054 | 13.89° C | 43% | 1022 hPa | 0 mm | - | - | - |
* Rain latest hour (hover to see other rain measurements)
** Current wind speed in m/s (hover to see current wind gust speed)